When you browse on this site, cookies collect data to enhance your experience and personalize the content and advertising you see.
Visit our Privacy Policy to learn more. By continuing to use the site, you agree to this use of cookies and data.
  • In Hungary
  • List of Countries
  • For 7 days
  • Water Temperature
  • Weather Map
  • News
  • Weather Widgets
  • user-avatar
    Login

    Hourly Weather Szczodrzejewo

    Today, 13 December, Friday

    Time Temperature Precipitation Wind Pressure Humidity
    00:00 -1°C° 0 mm 3 mps 744 mmHg 73%
    01:00 -2°C° 0 mm 4 mps 743 mmHg 73%
    02:00 -2°C° 0 mm 4 mps 742 mmHg 79%
    03:00 -1°C° 0 mm 3 mps 741 mmHg 85%
    04:00 -1°C° 0 mm 3 mps 740 mmHg 91%
    05:00 -2°C° 0 mm 4 mps 739 mmHg 92%
    06:00 -1°C° 0 mm 4 mps 738 mmHg 92%
    07:00 -1°C° 0 mm 4 mps 738 mmHg 92%
    08:00 -1°C° 0 mm 5 mps 737 mmHg 90%
    09:00 0°C° 0 mm 5 mps 736 mmHg 88%
    10:00 0°C° 0 mm 5 mps 735 mmHg 87%
    11:00 0°C° 0.3 mm 5 mps 735 mmHg 88%
    12:00 0°C° 0.3 mm 5 mps 734 mmHg 90%
    13:00 0°C° 0.3 mm 4 mps 733 mmHg 91%
    14:00 0°C° 0 mm 4 mps 733 mmHg 90%
    15:00 0°C° 0 mm 4 mps 733 mmHg 89%
    16:00 0°C° 0 mm 5 mps 733 mmHg 88%
    17:00 0°C° 0 mm 5 mps 733 mmHg 87%
    18:00 -1°C° 0 mm 5 mps 733 mmHg 86%
    19:00 -1°C° 0 mm 5 mps 733 mmHg 85%
    20:00 -1°C° 0 mm 4 mps 734 mmHg 85%
    21:00 -1°C° 0 mm 4 mps 734 mmHg 86%
    22:00 -1°C° 0 mm 4 mps 734 mmHg 86%
    23:00 -1°C° 0 mm 4 mps 735 mmHg 86%

    Tomorrow, 14 December, Saturday

    Time Temperature Precipitation Wind Pressure Humidity
    00:00 -1°C° 0 mm 4 mps 735 mmHg 86%
    01:00 -1°C° 0 mm 5 mps 735 mmHg 86%
    02:00 0°C° 0 mm 5 mps 735 mmHg 85%
    03:00 -1°C° 0 mm 6 mps 735 mmHg 83%
    04:00 -1°C° 0 mm 6 mps 735 mmHg 82%
    05:00 -1°C° 0 mm 6 mps 735 mmHg 82%
    06:00 +1°C° 0 mm 6 mps 736 mmHg 82%
    07:00 +1°C° 0 mm 6 mps 736 mmHg 82%
    08:00 +1°C° 0.1 mm 6 mps 736 mmHg 84%
    09:00 +2°C° 0.1 mm 6 mps 737 mmHg 87%
    10:00 +2°C° 0.1 mm 6 mps 737 mmHg 90%
    11:00 +2°C° 0 mm 6 mps 737 mmHg 85%
    12:00 +3°C° 0 mm 6 mps 737 mmHg 79%
    13:00 +3°C° 0 mm 6 mps 737 mmHg 73%
    14:00 +3°C° 0.2 mm 6 mps 737 mmHg 79%
    15:00 +2°C° 0.2 mm 7 mps 737 mmHg 85%
    16:00 +2°C° 0.2 mm 7 mps 737 mmHg 92%
    17:00 +1°C° 0.4 mm 8 mps 738 mmHg 86%
    18:00 +2°C° 0.4 mm 9 mps 739 mmHg 81%
    19:00 +3°C° 0.4 mm 9 mps 740 mmHg 76%
    20:00 +2°C° 0 mm 8 mps 741 mmHg 75%
    21:00 +3°C° 0 mm 7 mps 742 mmHg 74%
    22:00 +2°C° 0 mm 6 mps 743 mmHg 73%
    23:00 +2°C° 0 mm 6 mps 743 mmHg 73%

    Day after tomorrow, 15 December, Sunday

    Time Temperature Precipitation Wind Pressure Humidity
    00:00 +2°C° 0 mm 6 mps 744 mmHg 74%
    01:00 +2°C° 0 mm 6 mps 745 mmHg 74%
    02:00 +2°C° 0 mm 6 mps 745 mmHg 78%
    03:00 +2°C° 0 mm 6 mps 745 mmHg 81%
    04:00 +2°C° 0 mm 6 mps 746 mmHg 85%
    05:00 +1°C° 0 mm 5 mps 746 mmHg 85%
    06:00 +1°C° 0 mm 5 mps 746 mmHg 85%
    07:00 +1°C° 0 mm 4 mps 746 mmHg 85%
    08:00 +2°C° 0 mm 5 mps 746 mmHg 83%
    09:00 +3°C° 0 mm 6 mps 746 mmHg 81%
    10:00 +4°C° 0 mm 7 mps 745 mmHg 79%
    11:00 +5°C° 0.9 mm 7 mps 745 mmHg 80%
    12:00 +5°C° 0.9 mm 7 mps 745 mmHg 81%
    13:00 +6°C° 0.9 mm 8 mps 745 mmHg 82%
    14:00 +6°C° 0.3 mm 7 mps 745 mmHg 82%
    15:00 +7°C° 0.3 mm 6 mps 746 mmHg 83%
    16:00 +7°C° 0.3 mm 5 mps 747 mmHg 84%
    17:00 +6°C° 0 mm 5 mps 748 mmHg 85%
    18:00 +5°C° 0 mm 4 mps 749 mmHg 86%
    19:00 +5°C° 0 mm 3 mps 750 mmHg 87%
    20:00 +5°C° 0 mm 4 mps 750 mmHg 86%
    21:00 +4°C° 0 mm 4 mps 751 mmHg 86%
    22:00 +4°C° 0 mm 4 mps 751 mmHg 85%
    23:00 +4°C° 0 mm 4 mps 752 mmHg 86%

    16 December, Monday

    Time Temperature Precipitation Wind Pressure Humidity
    00:00 +4°C° 0 mm 3 mps 752 mmHg 88%
    01:00 +4°C° 0 mm 3 mps 752 mmHg 89%
    02:00 +4°C° 0 mm 3 mps 753 mmHg 89%
    03:00 +4°C° 0 mm 3 mps 753 mmHg 88%
    04:00 +4°C° 0 mm 3 mps 753 mmHg 88%
    05:00 +4°C° 0 mm 3 mps 753 mmHg 89%
    06:00 +4°C° 0 mm 3 mps 753 mmHg 90%
    07:00 +4°C° 0 mm 3 mps 753 mmHg 91%
    08:00 +4°C° 0 mm 3 mps 754 mmHg 90%
    09:00 +4°C° 0 mm 3 mps 754 mmHg 89%
    10:00 +6°C° 0 mm 2 mps 754 mmHg 88%
    11:00 +7°C° 0 mm 3 mps 754 mmHg 86%
    12:00 +7°C° 0 mm 3 mps 754 mmHg 83%
    13:00 +8°C° 0 mm 3 mps 753 mmHg 80%
    14:00 +7°C° 0 mm 3 mps 753 mmHg 81%
    15:00 +7°C° 0 mm 3 mps 753 mmHg 81%
    16:00 +7°C° 0 mm 3 mps 753 mmHg 82%
    17:00 +5°C° 0 mm 3 mps 753 mmHg 83%
    18:00 +5°C° 0 mm 3 mps 752 mmHg 84%
    19:00 +5°C° 0 mm 3 mps 752 mmHg 85%
    20:00 +5°C° 0 mm 3 mps 752 mmHg 87%
    21:00 +5°C° 0 mm 3 mps 752 mmHg 88%
    22:00 +4°C° 0 mm 3 mps 752 mmHg 89%
    23:00 +4°C° 0 mm 3 mps 751 mmHg 89%

    17 December, Tuesday

    Time Temperature Precipitation Wind Pressure Humidity
    00:00 +4°C° 0 mm 4 mps 751 mmHg 90%
    01:00 +4°C° 0 mm 4 mps 751 mmHg 90%
    02:00 +4°C° 0 mm 4 mps 751 mmHg 90%
    03:00 +4°C° 0 mm 4 mps 751 mmHg 90%
    04:00 +4°C° 0 mm 4 mps 751 mmHg 91%
    05:00 +4°C° 0 mm 3 mps 751 mmHg 91%
    06:00 +4°C° 0 mm 3 mps 751 mmHg 91%
    07:00 +4°C° 0 mm 3 mps 750 mmHg 91%
    08:00 +4°C° 0 mm 3 mps 751 mmHg 91%
    09:00 +6°C° 0 mm 2 mps 751 mmHg 91%
    10:00 +6°C° 0 mm 2 mps 751 mmHg 90%
    11:00 +7°C° 0 mm 2 mps 750 mmHg 88%
    12:00 +7°C° 0 mm 2 mps 750 mmHg 86%
    13:00 +8°C° 0 mm 2 mps 750 mmHg 85%
    14:00 +7°C° 0 mm 2 mps 750 mmHg 86%
    15:00 +6°C° 0 mm 2 mps 750 mmHg 88%
    16:00 +6°C° 0 mm 2 mps 750 mmHg 90%
    17:00 +6°C° 0 mm 2 mps 750 mmHg 90%
    18:00 +5°C° 0 mm 2 mps 750 mmHg 91%
    19:00 +5°C° 0 mm 2 mps 750 mmHg 91%
    20:00 +5°C° 0 mm 2 mps 750 mmHg 91%
    21:00 +5°C° 0 mm 2 mps 750 mmHg 91%
    22:00 +4°C° 0 mm 2 mps 751 mmHg 91%
    23:00 +4°C° 0 mm 2 mps 751 mmHg 90%

    18 December, Wednesday

    Time Temperature Precipitation Wind Pressure Humidity
    00:00 +4°C° 0 mm 2 mps 751 mmHg 90%
    01:00 +4°C° 0 mm 2 mps 751 mmHg 89%
    02:00 +4°C° 0 mm 2 mps 751 mmHg 88%
    03:00 +4°C° 0 mm 2 mps 751 mmHg 87%
    04:00 +5°C° 0 mm 1 mps 751 mmHg 86%
    05:00 +5°C° 0 mm 1 mps 751 mmHg 85%
    06:00 +5°C° 0 mm 1 mps 751 mmHg 85%
    07:00 +5°C° 0 mm 1 mps 751 mmHg 85%
    08:00 +6°C° 0 mm 1 mps 752 mmHg 84%
    09:00 +6°C° 0 mm 1 mps 752 mmHg 83%
    10:00 +7°C° 0 mm 1 mps 753 mmHg 82%
    11:00 +7°C° 0 mm 1 mps 753 mmHg 80%
    12:00 +8°C° 0 mm 1 mps 753 mmHg 79%
    13:00 +7°C° 0 mm 2 mps 753 mmHg 77%
    14:00 +7°C° 0 mm 2 mps 753 mmHg 80%
    15:00 +6°C° 0 mm 2 mps 753 mmHg 83%
    16:00 +5°C° 0 mm 2 mps 754 mmHg 87%
    17:00 +5°C° 0 mm 2 mps 754 mmHg 88%
    18:00 +4°C° 0 mm 2 mps 754 mmHg 90%
    19:00 +4°C° 0 mm 2 mps 755 mmHg 92%
    20:00 +4°C° 0 mm 2 mps 755 mmHg 92%
    21:00 +4°C° 0 mm 2 mps 755 mmHg 92%
    22:00 +5°C° 0 mm 1 mps 755 mmHg 92%
    23:00 +4°C° 0 mm 1 mps 755 mmHg 93%
    Show more